[[{"header":{"parameterUnit":"m.s-1","parameterCategory":2,"la1":30.2991,"la2":30.254,"lo1":-89.0895,"lo2":-89.0444,"dy":0.0017,"dx":0.0017,"nx":28,"ny":28,"refTime":"2026-02-25T03:00:00:Z","depth":"0","parameterNumber":2,"parameterNumberName":"U-component_of_CURRENTS"},"data":[0,0,0,0,0,0,0,0,0,0,0,0,0,0,0,0,0,0,0,0,0,0,0,0,0,0,0,0,0,0,0,0,0,0,0,0,0,0,0,0,0,0,0,0,0,0,0,0,0,0,0,0,0,0,0,0,0,0,0.2482,0.2482,0,0.25,0.25,0.2501,0.2496,0.2496,0.2496,0.2495,0.2502,0.2503,0.2503,0,0,0,0,0,0,0,0,0,0,0,0,0,0.2466,0.2466,0.2482,0.2482,0.2482,0.25,0.25,0.2501,0.2496,0.2496,0.2496,0.2495,0.2502,0.2502,0.2503,0,0,0,0,0,0,0,0,0,0,0,0,0,0.2477,0.2466,0.2482,0.2483,0.2483,0.25,0.25,0.2501,0.2496,0.2496,0.2496,0.2495,0.2502,0.2502,0.2503,0.2516,0,0,0.2505,0.2505,0,0,0,0,0,0,0,0,0.2476,0.2477,0.2482,0.2483,0.2483,0.2496,0.2497,0.2506,0.2497,0.2491,0.2495,0.2495,0.25,0.2501,0.2504,0.2517,0.2517,0.2505,0.2506,0.2506,0.2506,0,0,0,0,0,0,0,0.2475,0.2477,0.2489,0.2483,0.2483,0.249,0.2491,0.2499,0.2497,0.2491,0.2491,0.2494,0.25,0.2504,0.2504,0.2517,0.2505,0.2506,0.2506,0.2507,0.2574,0.2575,0,0,0,0,0,0,0.2474,0.2476,0.2488,0.2489,0.2479,0.2491,0.2492,0.2492,0.2497,0.2498,0.2495,0.2494,0.2503,0.2504,0.2505,0.2541,0.2506,0.2507,0.2507,0.2572,0.2574,0.2576,0,0,0,0,0,0,0.2473,0.2474,0.2487,0.2484,0.2486,0.2491,0.2492,0.2493,0.2499,0.25,0.25,0.25,0.2502,0.2504,0.2523,0.2541,0.2507,0.2508,0.2571,0.2573,0.2575,0.2601,0,0,0,0,0,0,0.2472,0.2474,0.2474,0.2483,0.2486,0.2508,0.2492,0.2493,0.2501,0.2501,0.2505,0.2505,0.2502,0.2522,0.2524,0.2541,0.2508,0.2569,0.2572,0.2574,0.2599,0.2604,0.2608,0,0,0,0,0,0.2472,0.2475,0.2474,0.2476,0.2486,0.2509,0.2512,0.2514,0.2502,0.2515,0.2517,0.2505,0.254,0.2524,0.2526,0.2543,0.2568,0.2571,0.2574,0.2596,0.2603,0.2608,0,0,0,0,0,0,0.2469,0.2475,0.2474,0.2479,0.2498,0.2509,0.2517,0.2517,0.2528,0.2526,0.252,0.2521,0.2548,0.2545,0.2527,0.2573,0.2553,0.2557,0.257,0.2576,0.2581,0.2588,0.2509,0,0,0,0,0,0.2468,0.247,0.2485,0.2491,0.25,0.2509,0.2517,0.2523,0.2533,0.2537,0.2536,0.2543,0.2563,0.2567,0.2583,0.2602,0.2607,0.2617,0.2622,0.2626,0.2635,0.2664,0.2672,0.2586,0.2586,0.2586,0,0,0.2467,0.2472,0.2472,0.2491,0.2501,0.2518,0.2513,0.2532,0.2547,0.2536,0.255,0.2562,0.2574,0.2602,0.2613,0.2598,0.2652,0.263,0.2633,0.264,0.2668,0.2677,0.2684,0.2588,0.2588,0.2587,0,0,0.2469,0.2474,0.2477,0.2494,0.2516,0.2529,0.2536,0.2551,0.2561,0.2583,0.2583,0.2608,0.2621,0.264,0.2651,0.2693,0.2682,0.2695,0.2719,0.2748,0.2755,0.2761,0.277,0.2777,0.2692,0.2692,0.2692,0,0.2468,0.2471,0.2485,0.2497,0.251,0.2533,0.2547,0.2567,0.2586,0.2601,0.2592,0.2635,0.2644,0.2687,0.2704,0.2704,0.271,0.2691,0.2753,0.2759,0.2766,0.2773,0.278,0.2694,0.2694,0.2693,0.2693,0,0.2471,0.2478,0.2486,0.2504,0.2525,0.2545,0.2576,0.2598,0.2609,0.2626,0.267,0.2688,0.2712,0.2724,0.2726,0.2777,0.2765,0.2758,0.2734,0.2776,0.2781,0.2788,0.2696,0.2696,0.2695,0.2695,0,0,0.2456,0.2481,0.2482,0.2491,0.253,0.2548,0.2586,0.2628,0.2653,0.2679,0.2713,0.2755,0.2764,0.2778,0.2788,0.2816,0.2862,0.2806,0.2806,0.2807,0.2913,0.2867,0.287,0.2863,0.2865,0.2866,0.2896,0,0.2454,0.2466,0.2485,0.2508,0.2521,0.256,0.2593,0.2637,0.2675,0.2715,0.2754,0.279,0.2785,0.2802,0.2831,0.2865,0.2883,0.2853,0.2879,0.288,0.2828,0.2878,0.283,0.285,0.2903,0.2904,0.2905,0,0.2445,0.2457,0.247,0.2509,0.2519,0.254,0.2602,0.2638,0.2711,0.2742,0.2789,0.2817,0.2875,0.2859,0.2925,0.2905,0.2912,0.2927,0.2929,0.2883,0.2848,0.282,0.286,0.2825,0.2915,0.2914,0.2914,0,0.2417,0.2446,0.2454,0.2465,0.2514,0.2535,0.257,0.264,0.2678,0.2762,0.2799,0.2862,0.2902,0.2931,0.2963,0.2948,0.3028,0.3005,0.2965,0.2961,0.2925,0.2915,0.2929,0.3043,0.3043,0.3043,0.3043,0,0.2402,0.2407,0.2438,0.2442,0.2465,0.2512,0.2552,0.2605,0.2682,0.2731,0.2804,0.2855,0.2925,0.2974,0.2985,0.3002,0.304,0.2983,0.2975,0.2931,0.2922,0.2891,0.2885,0.3044,0.3044,0.3044,0.3043,0,0.2364,0.2383,0.2391,0.2433,0.2447,0.2462,0.2527,0.2559,0.2647,0.2716,0.2745,0.2864,0.2935,0.2985,0.3047,0.3027,0.2965,0.3036,0.2972,0.2955,0.2861,0.2858,0.2618,0.2566,0.2995,0.2994,0.2993,0,0.2344,0.2342,0.2367,0.2368,0.2383,0.2414,0.2437,0.2526,0.2568,0.2713,0.2744,0.2852,0.2916,0.2995,0.3003,0.3015,0.2928,0.2956,0.2917,0.2862,0.2854,0.262,0.2579,0.288,0.2878,0.2877,0.2876,0,0.2307,0.2309,0.2314,0.2313,0.2326,0.234,0.2386,0.2413,0.2527,0.2602,0.27,0.2769,0.2878,0.2898,0.2933,0.293,0.282,0.2927,0.2902,0.2796,0.2512,0.2457,0.2842,0.2864,0.2866,0.2866,0.2867,0.2867,0.2272,0.2258,0.2258,0.2251,0.2258,0.2254,0.2246,0.2314,0.2371,0.2471,0.2597,0.2679,0.2813,0.2866,0.2837,0.2795,0.2706,0.2748,0.2758,0.2528,0.2442,0.2787,0.2777,0.2778,0.2778,0.2779,0.2779,0,0.2223,0.2208,0.2198,0.2175,0.2146,0.2179,0.2198,0.2185,0.2218,0.236,0.2445,0.2582,0.2632,0.2701,0.2728,0.2661,0.248,0.2611,0.233,0.2313,0.2681,0.2649,0.2572,0.2572,0.2572,0.2572,0.2572,0.2573,0.2196,0.2159,0.2145,0.207,0.2051,0.1995,0.1985,0.1987,0.2056,0.214,0.2226,0.2335,0.2521,0.2618,0.2588,0.2557,0.2367,0.2203,0.2191,0.2558,0.2571,0.2584,0.2552,0.2456,0.2456,0.1697,0.1693,0.1689]},{"header":{"parameterUnit":"m.s-1","parameterCategory":2,"la1":30.2991,"la2":30.254,"lo1":-89.0895,"lo2":-89.0444,"dy":0.0017,"dx":0.0017,"nx":28,"ny":28,"refTime":"2026-02-25T03:00:00:Z","depth":"0","parameterNumber":3,"parameterNumberName":"V-component_of_CURRENTS"},"data":[0,0,0,0,0,0,0,0,0,0,0,0,0,0,0,0,0,0,0,0,0,0,0,0,0,0,0,0,0,0,0,0,0,0,0,0,0,0,0,0,0,0,0,0,0,0,0,0,0,0,0,0,0,0,0,0,0,0,0.0427,0.0427,0,0.0417,0.0417,0.0417,0.0396,0.0396,0.0395,0.0395,0.0357,0.0356,0.0355,0,0,0,0,0,0,0,0,0,0,0,0,0,0.0401,0.0401,0.0427,0.0427,0.0427,0.0417,0.0417,0.0417,0.0396,0.0396,0.0395,0.0395,0.0357,0.0356,0.0355,0,0,0,0,0,0,0,0,0,0,0,0,0,0.0404,0.0402,0.0427,0.0415,0.0414,0.0417,0.0417,0.0417,0.0396,0.0396,0.0395,0.0394,0.0357,0.0356,0.0355,0.0363,0,0,0.0352,0.0352,0,0,0,0,0,0,0,0,0.0404,0.0405,0.0417,0.0416,0.0415,0.0407,0.0393,0.0397,0.0396,0.0403,0.0395,0.0394,0.0371,0.0369,0.0369,0.0361,0.0359,0.0352,0.0352,0.0351,0.0351,0,0,0,0,0,0,0,0.0404,0.0405,0.0424,0.0417,0.0416,0.04,0.04,0.0394,0.0391,0.0403,0.0401,0.04,0.037,0.037,0.0368,0.0359,0.0352,0.0352,0.0351,0.0351,0.0347,0.0347,0,0,0,0,0,0,0.0407,0.0405,0.0424,0.0423,0.0407,0.0401,0.0402,0.041,0.0391,0.0388,0.04,0.0399,0.0372,0.0369,0.0367,0.0382,0.0351,0.0351,0.035,0.0346,0.0347,0.0347,0,0,0,0,0,0,0.0406,0.0409,0.0424,0.0413,0.0414,0.0403,0.0413,0.041,0.0411,0.039,0.0386,0.0402,0.0372,0.0368,0.0364,0.0379,0.035,0.0349,0.0346,0.0346,0.0347,0.0406,0,0,0,0,0,0,0.0406,0.0409,0.0416,0.0414,0.0414,0.0434,0.0413,0.0411,0.041,0.0408,0.039,0.0386,0.0371,0.0365,0.0363,0.0378,0.0349,0.0345,0.0346,0.0347,0.0404,0.0409,0.0413,0,0,0,0,0,0.0405,0.0421,0.0416,0.0418,0.0425,0.0435,0.0434,0.0424,0.0411,0.042,0.0403,0.0387,0.0369,0.0365,0.0362,0.0377,0.0345,0.0346,0.0347,0.0402,0.0408,0.0413,0,0,0,0,0,0,0.0412,0.042,0.0415,0.0432,0.0435,0.0431,0.0437,0.0428,0.0423,0.0419,0.0394,0.039,0.039,0.0375,0.0372,0.0377,0.0353,0.0354,0.0396,0.0402,0.0406,0.0419,0.0348,0,0,0,0,0,0.0417,0.0432,0.0434,0.0447,0.0451,0.0444,0.0446,0.0441,0.0435,0.0432,0.0417,0.0401,0.0393,0.039,0.0379,0.0386,0.0363,0.0391,0.0396,0.04,0.0408,0.0387,0.0391,0.035,0.035,0.035,0,0,0.0422,0.0429,0.0436,0.0449,0.0451,0.0468,0.0444,0.0454,0.0469,0.0429,0.0439,0.0416,0.0397,0.0403,0.0402,0.0393,0.0399,0.0402,0.0406,0.0411,0.0388,0.0392,0.0396,0.0351,0.0351,0.0351,0,0,0.0445,0.0448,0.047,0.0478,0.0486,0.0485,0.049,0.0489,0.0491,0.0498,0.047,0.0458,0.0448,0.0438,0.0432,0.0456,0.0422,0.0449,0.0489,0.0469,0.0472,0.0475,0.0449,0.0449,0.0455,0.0455,0.0455,0,0.0449,0.0481,0.0477,0.0501,0.0514,0.0497,0.0526,0.0527,0.0523,0.0529,0.051,0.049,0.0469,0.0477,0.0482,0.0469,0.0447,0.0471,0.0476,0.0478,0.0479,0.0452,0.0451,0.0458,0.0458,0.0458,0.0457,0,0.0492,0.0515,0.053,0.0556,0.0569,0.0591,0.0595,0.0605,0.0598,0.0592,0.0594,0.0562,0.055,0.054,0.052,0.0524,0.05,0.0482,0.0464,0.0487,0.0457,0.0455,0.0462,0.0461,0.046,0.046,0,0,0.0506,0.0552,0.0557,0.0586,0.0604,0.0625,0.0651,0.0674,0.0696,0.0675,0.0697,0.0669,0.0637,0.0627,0.0594,0.0576,0.0563,0.0538,0.0535,0.0517,0.0512,0.0499,0.0495,0.0543,0.0543,0.0543,0.0485,0,0.0542,0.0603,0.0614,0.0673,0.0708,0.071,0.074,0.0754,0.0755,0.0767,0.0731,0.0728,0.0675,0.0668,0.0641,0.0585,0.056,0.058,0.0488,0.0485,0.0475,0.0493,0.0544,0.0497,0.0483,0.0482,0.0482,0,0.0582,0.0622,0.0687,0.0749,0.0764,0.0794,0.0845,0.087,0.0875,0.0874,0.0855,0.0814,0.0783,0.0734,0.0649,0.0663,0.0593,0.0543,0.054,0.0507,0.0469,0.0471,0.0494,0.0466,0.0479,0.0479,0.0479,0,0.0609,0.0675,0.0733,0.0752,0.0811,0.0848,0.0879,0.0902,0.0939,0.0936,0.0952,0.0893,0.0876,0.0784,0.067,0.0659,0.0574,0.0545,0.0466,0.0464,0.048,0.0479,0.0471,0.0484,0.0484,0.0484,0.0485,0,0.0648,0.0695,0.0753,0.0788,0.0865,0.089,0.0965,0.0985,0.102,0.1074,0.1005,0.1027,0.0888,0.0818,0.07,0.0582,0.0593,0.0479,0.0453,0.0501,0.0503,0.0456,0.0422,0.0482,0.0483,0.0483,0.0483,0,0.0671,0.0705,0.078,0.0854,0.0883,0.0939,0.1032,0.1086,0.1105,0.1175,0.1176,0.1129,0.1041,0.0892,0.0746,0.0635,0.0502,0.0462,0.0524,0.0507,0.0408,0.0375,0.0337,0.0347,0.0372,0.0372,0.0371,0,0.069,0.0729,0.0826,0.0878,0.0917,0.1003,0.107,0.1124,0.1192,0.1247,0.129,0.122,0.1202,0.0975,0.0761,0.0556,0.0501,0.0457,0.0444,0.0419,0.0362,0.0362,0.0374,0.0484,0.0484,0.0485,0.0485,0,0.0725,0.0755,0.0817,0.0925,0.1007,0.1107,0.1209,0.1279,0.1355,0.1422,0.1491,0.1477,0.1266,0.1101,0.0807,0.0646,0.0476,0.0457,0.0423,0.0447,0.0455,0.0448,0.0497,0.0489,0.0488,0.0488,0.0488,0.0488,0.0746,0.0793,0.0875,0.0979,0.1075,0.1205,0.1308,0.1426,0.1555,0.1697,0.166,0.1717,0.1465,0.108,0.0837,0.0504,0.0497,0.043,0.0389,0.0389,0.0416,0.0469,0.0434,0.0434,0.0433,0.0433,0.0432,0,0.0771,0.0834,0.0928,0.1059,0.117,0.1222,0.1399,0.1525,0.1702,0.1858,0.1939,0.1929,0.1589,0.1234,0.0765,0.0523,0.0445,0.0388,0.0415,0.0427,0.0471,0.0495,0.0484,0.0484,0.0484,0.0484,0.0484,0.0484,0.0788,0.0875,0.0929,0.1113,0.1213,0.139,0.1504,0.1697,0.1866,0.2134,0.2269,0.2344,0.2163,0.1222,0.0683,0.0518,0.0427,0.0347,0.0303,0.0341,0.0343,0.0345,0.0362,0.0323,0.0322,0.0334,0.0334,0.0334]}],[{"header":{"parameterUnit":"m.s-1","parameterCategory":2,"la1":30.2991,"la2":30.254,"lo1":-89.0895,"lo2":-89.0444,"dy":0.0017,"dx":0.0017,"nx":28,"ny":28,"refTime":"2026-02-25T03:00:00:Z","depth":"2","parameterNumber":2,"parameterNumberName":"U-component_of_CURRENTS"},"data":[0,0,0,0,0,0,0,0,0,0,0,0,0,0,0,0,0,0,0,0,0,0,0,0,0,0,0,0,0,0,0,0,0,0,0,0,0,0,0,0,0,0,0,0,0,0,0,0,0,0,0,0,0,0,0,0,0,0,0.2363,0.2364,0,0.238,0.238,0.238,0.238,0.2379,0.2379,0.2379,0.2389,0.2389,0.239,0,0,0,0,0,0,0,0,0,0,0,0,0,0.2349,0.2349,0.2363,0.2364,0.2364,0.238,0.238,0.238,0.238,0.2379,0.2379,0.2379,0.2389,0.2389,0.239,0,0,0,0,0,0,0,0,0,0,0,0,0,0.2358,0.2349,0.2363,0.2366,0.2366,0.238,0.238,0.238,0.238,0.2379,0.2379,0.2379,0.2388,0.2389,0.239,0.2398,0,0,0.2392,0.2392,0,0,0,0,0,0,0,0,0.2358,0.2359,0.2365,0.2366,0.2366,0.2378,0.2378,0.2386,0.238,0.2374,0.2379,0.2379,0.2385,0.2386,0.2389,0.2399,0.2399,0.2392,0.2392,0.2392,0.2392,0,0,0,0,0,0,0,0.2357,0.2358,0.2369,0.2366,0.2366,0.2372,0.2373,0.238,0.238,0.2374,0.2375,0.2378,0.2385,0.2388,0.2389,0.2399,0.2392,0.2392,0.2393,0.2393,0.2458,0.2459,0,0,0,0,0,0,0.2356,0.2357,0.2369,0.237,0.2362,0.2373,0.2374,0.2374,0.238,0.2381,0.2378,0.2378,0.2387,0.2388,0.2389,0.2428,0.2392,0.2393,0.2393,0.2456,0.2458,0.2459,0,0,0,0,0,0,0.2355,0.2357,0.2368,0.2365,0.2367,0.2373,0.2374,0.2374,0.2383,0.2383,0.2384,0.2386,0.2387,0.2388,0.2408,0.2427,0.2393,0.2394,0.2455,0.2457,0.2459,0.2487,0,0,0,0,0,0,0.2355,0.2356,0.2358,0.2365,0.2367,0.2388,0.2374,0.2375,0.2385,0.2385,0.239,0.239,0.2387,0.2407,0.2409,0.2427,0.2394,0.2453,0.2456,0.2458,0.2485,0.249,0.2495,0,0,0,0,0,0.2354,0.2357,0.2358,0.2359,0.2368,0.2389,0.2392,0.2395,0.2386,0.2399,0.2401,0.239,0.2425,0.2409,0.241,0.243,0.2452,0.2455,0.2458,0.2483,0.2489,0.2495,0,0,0,0,0,0,0.2353,0.2358,0.2358,0.2363,0.2381,0.239,0.2399,0.2399,0.2411,0.241,0.2404,0.2406,0.2434,0.243,0.2412,0.2458,0.2438,0.2442,0.2456,0.2463,0.2468,0.2474,0.2395,0,0,0,0,0,0.2354,0.2356,0.2369,0.2375,0.2384,0.2392,0.24,0.2406,0.2416,0.242,0.242,0.2428,0.2447,0.2452,0.2467,0.2486,0.249,0.2502,0.2507,0.2511,0.2519,0.2548,0.2556,0.2469,0.2469,0.2469,0,0,0.2353,0.2358,0.2358,0.2375,0.2386,0.2401,0.2397,0.2417,0.243,0.242,0.2435,0.2447,0.2458,0.2485,0.2497,0.2483,0.2537,0.2515,0.2518,0.2524,0.2552,0.256,0.2567,0.2472,0.2471,0.2471,0,0,0.2356,0.2362,0.2365,0.2381,0.2402,0.2414,0.2421,0.2437,0.2448,0.2469,0.247,0.2495,0.2508,0.2525,0.2535,0.2577,0.2567,0.2581,0.2605,0.2633,0.264,0.2646,0.2655,0.2662,0.2578,0.2578,0.2578,0,0.2357,0.236,0.2373,0.2384,0.2396,0.2419,0.2433,0.2452,0.2471,0.2486,0.2479,0.2522,0.253,0.257,0.2589,0.2588,0.2595,0.2577,0.2638,0.2645,0.2651,0.2658,0.2666,0.258,0.2579,0.2579,0.2579,0,0.236,0.2367,0.2374,0.2392,0.2412,0.2431,0.246,0.2483,0.2496,0.2513,0.2557,0.2574,0.2598,0.261,0.2612,0.2663,0.2651,0.2644,0.2619,0.2661,0.2666,0.2673,0.2582,0.2582,0.2581,0.2581,0,0,0.2347,0.237,0.2372,0.2381,0.2418,0.2434,0.2471,0.2511,0.2537,0.2564,0.2597,0.2639,0.265,0.2664,0.2673,0.27,0.2747,0.2692,0.2692,0.2694,0.2798,0.2751,0.2753,0.2749,0.2751,0.2752,0.2782,0,0.2346,0.2357,0.2375,0.2397,0.2408,0.2447,0.2478,0.252,0.2558,0.2599,0.2636,0.2674,0.267,0.2689,0.2718,0.275,0.2768,0.2739,0.2763,0.2764,0.2712,0.2761,0.2529,0.2533,0.2788,0.2789,0.279,0,0.2339,0.2349,0.2361,0.2398,0.2408,0.2429,0.2489,0.2523,0.2595,0.2627,0.2674,0.2703,0.276,0.2746,0.281,0.2791,0.2798,0.2813,0.2814,0.2766,0.2731,0.2535,0.2535,0.2802,0.2801,0.28,0.2799,0,0.2313,0.234,0.2348,0.2358,0.2404,0.2426,0.246,0.2528,0.2565,0.265,0.2686,0.2748,0.2789,0.2818,0.2849,0.2835,0.2911,0.2888,0.2848,0.2843,0.2649,0.2625,0.2926,0.2926,0.2926,0.2925,0.2925,0,0.2299,0.2305,0.2335,0.2338,0.2361,0.2406,0.2447,0.2499,0.2574,0.2622,0.2695,0.2744,0.2813,0.286,0.287,0.2886,0.2924,0.2865,0.2857,0.2652,0.263,0.2865,0.2858,0.2927,0.2926,0.2926,0.2926,0,0.2264,0.2282,0.229,0.233,0.2345,0.2361,0.2426,0.2457,0.2544,0.2612,0.2641,0.2755,0.2824,0.2872,0.2932,0.291,0.2929,0.2916,0.2668,0.263,0.2834,0.2828,0.2876,0.2875,0.2874,0.2873,0.2872,0,0.2245,0.2244,0.2269,0.227,0.2286,0.2318,0.2341,0.2428,0.2468,0.2609,0.2637,0.2744,0.28,0.2874,0.2849,0.2852,0.2915,0.2642,0.2578,0.2846,0.2833,0.2829,0.2824,0.2323,0.2318,0.2314,0.231,0,0.221,0.2214,0.2218,0.2219,0.2233,0.2246,0.2292,0.2317,0.2427,0.2498,0.2591,0.2653,0.2728,0.264,0.2659,0.2628,0.2626,0.2558,0.2902,0.2383,0.2331,0.2316,0.2328,0.2272,0.2276,0.2279,0.2281,0.2283,0.2178,0.2164,0.2165,0.2159,0.2167,0.2162,0.2154,0.2211,0.2262,0.2332,0.2458,0.2468,0.2494,0.2409,0.2327,0.2255,0.2445,0.2331,0.2341,0.2356,0.2299,0.2249,0.2163,0.2166,0.2169,0.2171,0.2173,0,0.2126,0.2117,0.2107,0.2085,0.2051,0.2091,0.2107,0.207,0.2087,0.217,0.2225,0.2053,0.2005,0.2019,0.1848,0.1853,0.1802,0.1778,0.1687,0.1727,0.1763,0.1672,0.1371,0.1368,0.1366,0.1363,0,0,0.2099,0.2061,0.2046,0.197,0.1958,0.189,0.1879,0.1841,0.1854,0.1821,0.1807,0.1946,0.1993,0.1668,0.1619,0.1465,0.1583,0.1404,0.2054,0.199,0.2021,0.2095,0.2004,0,0,0,0,0]},{"header":{"parameterUnit":"m.s-1","parameterCategory":2,"la1":30.2991,"la2":30.254,"lo1":-89.0895,"lo2":-89.0444,"dy":0.0017,"dx":0.0017,"nx":28,"ny":28,"refTime":"2026-02-25T03:00:00:Z","depth":"2","parameterNumber":3,"parameterNumberName":"V-component_of_CURRENTS"},"data":[0,0,0,0,0,0,0,0,0,0,0,0,0,0,0,0,0,0,0,0,0,0,0,0,0,0,0,0,0,0,0,0,0,0,0,0,0,0,0,0,0,0,0,0,0,0,0,0,0,0,0,0,0,0,0,0,0,0,0.0352,0.0352,0,0.0341,0.0341,0.0341,0.0323,0.0323,0.0323,0.0322,0.0285,0.0285,0.0284,0,0,0,0,0,0,0,0,0,0,0,0,0,0.0328,0.0329,0.0352,0.0352,0.0352,0.0341,0.0341,0.034,0.0323,0.0323,0.0322,0.0322,0.0286,0.0285,0.0284,0,0,0,0,0,0,0,0,0,0,0,0,0,0.033,0.0329,0.0352,0.0342,0.0341,0.0341,0.0341,0.034,0.0323,0.0323,0.0322,0.0322,0.0286,0.0285,0.0284,0.0288,0,0,0.0281,0.028,0,0,0,0,0,0,0,0,0.033,0.0331,0.0343,0.0342,0.0341,0.0333,0.0319,0.0322,0.0323,0.033,0.0322,0.0322,0.0299,0.0297,0.0297,0.0286,0.0285,0.0281,0.028,0.028,0.028,0,0,0,0,0,0,0,0.033,0.0331,0.0348,0.0343,0.0342,0.0327,0.0327,0.0319,0.0317,0.033,0.0328,0.0327,0.0298,0.0298,0.0296,0.0284,0.0281,0.028,0.0279,0.0279,0.0271,0.0272,0,0,0,0,0,0,0.0333,0.0332,0.0348,0.0348,0.0334,0.0328,0.0328,0.0336,0.0318,0.0315,0.0327,0.0326,0.03,0.0297,0.0294,0.0308,0.028,0.0279,0.0278,0.0271,0.0271,0.0272,0,0,0,0,0,0,0.0333,0.0335,0.0349,0.0338,0.0339,0.0329,0.0338,0.0336,0.0337,0.0316,0.0313,0.033,0.0299,0.0296,0.0291,0.0306,0.0278,0.0278,0.027,0.0271,0.0272,0.033,0,0,0,0,0,0,0.0333,0.0336,0.0342,0.0339,0.034,0.0358,0.0339,0.0336,0.0337,0.0335,0.0318,0.0314,0.0299,0.0293,0.029,0.0304,0.0277,0.027,0.0271,0.0271,0.0327,0.0332,0.0336,0,0,0,0,0,0.0332,0.0347,0.0343,0.0345,0.035,0.0358,0.0358,0.0348,0.0337,0.0346,0.033,0.0314,0.0295,0.0292,0.0289,0.0304,0.027,0.027,0.0271,0.0325,0.0331,0.0336,0,0,0,0,0,0,0.0339,0.0346,0.0342,0.0358,0.0361,0.0355,0.0361,0.0353,0.0348,0.0345,0.0321,0.0317,0.0317,0.0301,0.0299,0.0302,0.0279,0.028,0.0321,0.0327,0.0331,0.0345,0.0276,0,0,0,0,0,0.0344,0.0358,0.0359,0.0372,0.0376,0.0369,0.037,0.0366,0.036,0.0358,0.0342,0.0327,0.0318,0.0316,0.0303,0.0309,0.0286,0.0314,0.0319,0.0323,0.0331,0.0308,0.0312,0.0275,0.0275,0.0275,0,0,0.0349,0.0355,0.0362,0.0374,0.0375,0.0391,0.0369,0.0379,0.0393,0.0354,0.0365,0.0342,0.0322,0.0326,0.0325,0.0316,0.0321,0.0324,0.0328,0.0334,0.031,0.0313,0.0317,0.0275,0.0275,0.0275,0,0,0.0371,0.0374,0.0395,0.0403,0.0411,0.0409,0.0414,0.0413,0.0415,0.0421,0.0394,0.0382,0.0371,0.036,0.0353,0.0376,0.0343,0.0369,0.0409,0.0387,0.039,0.0392,0.0367,0.0366,0.0375,0.0375,0.0375,0,0.0375,0.0406,0.0402,0.0425,0.0437,0.042,0.0448,0.0449,0.0444,0.045,0.0433,0.0411,0.0391,0.0396,0.0402,0.0388,0.0366,0.0392,0.0394,0.0395,0.0397,0.037,0.0369,0.0378,0.0378,0.0378,0.0377,0,0.0416,0.0439,0.0453,0.0478,0.049,0.0511,0.0514,0.0524,0.0518,0.0511,0.0513,0.0481,0.0468,0.0458,0.0438,0.0441,0.0419,0.04,0.0382,0.0404,0.0374,0.0372,0.0382,0.0381,0.0381,0.038,0,0,0.0431,0.0474,0.0479,0.0508,0.0524,0.0543,0.0569,0.059,0.0611,0.059,0.061,0.0582,0.0552,0.0542,0.0509,0.049,0.0476,0.0454,0.0451,0.0434,0.0424,0.0412,0.0407,0.0457,0.0457,0.0457,0.0399,0,0.0465,0.0524,0.0534,0.059,0.0624,0.0626,0.0654,0.0667,0.0667,0.0678,0.0641,0.0638,0.0589,0.0582,0.0555,0.0498,0.0474,0.0494,0.0401,0.0399,0.0389,0.0406,0.0394,0.0342,0.0396,0.0396,0.0396,0,0.0505,0.0542,0.0605,0.0664,0.0679,0.0708,0.0757,0.078,0.0783,0.0782,0.0763,0.0723,0.0692,0.0645,0.056,0.0574,0.0506,0.0456,0.0452,0.042,0.0382,0.0328,0.0335,0.0392,0.0392,0.0392,0.0392,0,0.0532,0.0594,0.0651,0.0669,0.0725,0.0761,0.0791,0.0812,0.0847,0.0843,0.0859,0.0799,0.0783,0.0692,0.058,0.057,0.0482,0.0454,0.0377,0.0374,0.0337,0.0332,0.0393,0.0393,0.0393,0.0393,0.0393,0,0.057,0.0616,0.0672,0.0706,0.0781,0.0804,0.0877,0.0896,0.0928,0.0979,0.0912,0.0931,0.0795,0.0723,0.0608,0.049,0.05,0.0389,0.0363,0.0356,0.0354,0.0375,0.0373,0.0391,0.0391,0.0392,0.0392,0,0.0594,0.0627,0.0699,0.077,0.0799,0.0854,0.0944,0.0997,0.1014,0.108,0.1082,0.1031,0.0943,0.0796,0.065,0.0541,0.0418,0.0369,0.037,0.0345,0.0316,0.0318,0.0283,0.0282,0.0281,0.0281,0.028,0,0.0613,0.0651,0.0745,0.0797,0.0836,0.092,0.0985,0.1036,0.11,0.115,0.119,0.1119,0.1095,0.0868,0.0647,0.0443,0.0419,0.0298,0.0279,0.0329,0.0306,0.031,0.0313,0.0245,0.0244,0.0244,0.0243,0,0.0648,0.0678,0.0739,0.0845,0.0926,0.1022,0.1122,0.1188,0.1259,0.132,0.1381,0.1361,0.114,0.0925,0.0632,0.0482,0.0329,0.0281,0.0331,0.0283,0.0291,0.027,0.0274,0.0238,0.0238,0.0239,0.0239,0.0239,0.067,0.0716,0.0797,0.09,0.0994,0.1119,0.122,0.1323,0.1442,0.1544,0.1513,0.1486,0.122,0.0844,0.0577,0.029,0.032,0.0211,0.0213,0.0217,0.0231,0.0238,0.0177,0.0177,0.0177,0.0178,0.0178,0,0.0693,0.0758,0.085,0.0979,0.1084,0.1139,0.1308,0.1403,0.1557,0.1634,0.1681,0.1412,0.1159,0.0857,0.0438,0.02,0.0166,0.0109,0.0121,0.0128,0.0134,0.0144,0.0067,0.0066,0.0065,0.0065,0,0,0.0709,0.0793,0.0846,0.1025,0.1126,0.1288,0.1398,0.1532,0.1624,0.1705,0.1692,0.1619,0.1253,0.0924,0.0576,0.0335,0.029,0.0273,0.0386,0.0449,0.0458,0.0212,0.0239,0,0,0,0,0]}],[{"header":{"parameterUnit":"m.s-1","parameterCategory":2,"la1":30.2991,"la2":30.254,"lo1":-89.0895,"lo2":-89.0444,"dy":0.0017,"dx":0.0017,"nx":28,"ny":28,"refTime":"2026-02-25T03:00:00:Z","depth":"4","parameterNumber":2,"parameterNumberName":"U-component_of_CURRENTS"},"data":[0,0,0,0,0,0,0,0,0,0,0,0,0,0,0,0,0,0,0,0,0,0,0,0,0,0,0,0,0,0,0,0,0,0,0,0,0,0,0,0,0,0,0,0,0,0,0,0,0,0,0,0,0,0,0,0,0,0,0.1464,0.1464,0,0.1498,0.1499,0.1499,0.1541,0.1542,0.1543,0.1544,0.1599,0.16,0.1601,0,0,0,0,0,0,0,0,0,0,0,0,0,0.1425,0.1426,0.1464,0.1464,0.1465,0.1498,0.1499,0.1499,0.1541,0.1542,0.1543,0.1544,0.1599,0.16,0.1601,0,0,0,0,0,0,0,0,0,0,0,0,0,0.1448,0.1426,0.1464,0.1491,0.1494,0.1498,0.1499,0.1499,0.1541,0.1542,0.1543,0.1545,0.1599,0.16,0.1601,0.1585,0,0,0.1604,0.1605,0,0,0,0,0,0,0,0,0.1447,0.1449,0.1486,0.1489,0.1492,0.1518,0.1506,0.1529,0.1541,0.1522,0.1544,0.1545,0.1574,0.1577,0.1579,0.1587,0.159,0.1604,0.1605,0.1606,0.1606,0,0,0,0,0,0,0,0.1445,0.1448,0.1476,0.1487,0.1491,0.1498,0.1503,0.151,0.154,0.1524,0.1527,0.1532,0.1576,0.1578,0.1581,0.159,0.1604,0.1605,0.1606,0.1607,0.1692,0.1694,0,0,0,0,0,0,0.1442,0.1447,0.1475,0.1478,0.1473,0.1498,0.1503,0.1507,0.154,0.1546,0.1531,0.1534,0.1575,0.1579,0.1583,0.1656,0.1606,0.1607,0.1607,0.1691,0.1693,0.1694,0,0,0,0,0,0,0.1441,0.1445,0.1474,0.1464,0.1468,0.1498,0.1502,0.1508,0.1544,0.1546,0.1553,0.1566,0.1576,0.1581,0.1622,0.1655,0.1607,0.1608,0.1689,0.1691,0.1694,0.1745,0,0,0,0,0,0,0.144,0.1444,0.1462,0.1464,0.1469,0.1501,0.1501,0.1507,0.1544,0.1549,0.1577,0.1581,0.1578,0.162,0.1623,0.1656,0.1609,0.1687,0.169,0.1693,0.1741,0.1749,0.1755,0,0,0,0,0,0.1439,0.1452,0.1462,0.1467,0.1487,0.1503,0.1507,0.153,0.1545,0.1566,0.1588,0.1582,0.1641,0.1622,0.1625,0.1659,0.1685,0.1689,0.1693,0.1738,0.1747,0.1755,0,0,0,0,0,0,0.1446,0.1457,0.1469,0.1487,0.1507,0.1511,0.1535,0.1548,0.158,0.1597,0.1598,0.1604,0.1654,0.1649,0.1628,0.1694,0.1664,0.1669,0.1698,0.1707,0.1714,0.1718,0.161,0,0,0,0,0,0.1455,0.1471,0.1482,0.1502,0.1514,0.1531,0.1547,0.1564,0.1584,0.1601,0.1619,0.1642,0.1664,0.1681,0.1698,0.1728,0.1725,0.1755,0.1762,0.1768,0.1775,0.1799,0.1809,0.1706,0.1706,0.1706,0,0,0.1464,0.1473,0.1485,0.1506,0.1524,0.1542,0.1545,0.158,0.1604,0.1601,0.1652,0.167,0.1679,0.1719,0.1741,0.1723,0.1797,0.1773,0.1778,0.1781,0.1804,0.1814,0.1822,0.1709,0.1708,0.1708,0,0,0.1476,0.1501,0.1515,0.1533,0.1566,0.1575,0.1593,0.1619,0.1647,0.1688,0.1697,0.1737,0.1767,0.178,0.1788,0.1844,0.1835,0.1858,0.1895,0.1919,0.1927,0.1934,0.1942,0.195,0.1859,0.1859,0.1859,0,0.1491,0.1504,0.1524,0.154,0.156,0.1593,0.1614,0.1641,0.1681,0.1706,0.1717,0.178,0.1793,0.1834,0.1861,0.186,0.1868,0.1859,0.1927,0.1934,0.1941,0.1947,0.1955,0.1862,0.1862,0.1861,0.1861,0,0.1498,0.1525,0.1538,0.1567,0.1593,0.1621,0.1654,0.1697,0.1736,0.1759,0.1827,0.1848,0.1885,0.19,0.19,0.1958,0.1947,0.1933,0.1902,0.1954,0.1958,0.1965,0.1866,0.1865,0.1864,0.1863,0,0,0.1489,0.1534,0.1542,0.1563,0.1613,0.163,0.1684,0.1732,0.1776,0.1827,0.1878,0.1929,0.1954,0.1966,0.1978,0.2004,0.2061,0.1998,0.1998,0.2001,0.2112,0.1967,0.1961,0.2064,0.2065,0.2067,0.2095,0,0.1493,0.1522,0.1548,0.1591,0.1609,0.166,0.1704,0.1758,0.1814,0.1874,0.1917,0.1974,0.1974,0.2011,0.2037,0.2063,0.2083,0.2054,0.2067,0.2067,0.1927,0.1965,0.2072,0.21,0.2102,0.2103,0.2104,0,0.1483,0.1507,0.1544,0.1603,0.1618,0.1657,0.1739,0.1785,0.1872,0.1919,0.1983,0.2021,0.2086,0.2074,0.2134,0.2121,0.2126,0.2132,0.2133,0.1983,0.1934,0.2039,0.2116,0.2115,0.2114,0.2113,0.2113,0,0.1447,0.1503,0.1535,0.1554,0.1624,0.1668,0.172,0.1806,0.1854,0.1962,0.2011,0.2081,0.2134,0.2158,0.2182,0.2173,0.223,0.2209,0.2076,0.2066,0.2165,0.2157,0.224,0.224,0.224,0.224,0.224,0,0.142,0.145,0.1529,0.1544,0.1598,0.1661,0.1733,0.1799,0.1894,0.1947,0.2039,0.2083,0.2163,0.2201,0.2204,0.2158,0.2246,0.2086,0.2064,0.2186,0.218,0.2169,0.2161,0.2241,0.2241,0.2241,0.2241,0,0.1365,0.1417,0.1458,0.1546,0.158,0.1622,0.1731,0.1774,0.1886,0.196,0.2001,0.211,0.2158,0.2202,0.2245,0.2171,0.2151,0.211,0.224,0.2226,0.1965,0.1959,0.1959,0.1954,0.195,0.1946,0.1943,0,0.1334,0.1351,0.1447,0.1474,0.152,0.1596,0.164,0.1757,0.1802,0.1951,0.197,0.207,0.2122,0.2061,0.2122,0.2101,0.2073,0.2042,0.1997,0.1958,0.1938,0.1938,0.1938,0.1937,0.1936,0.1935,0.1934,0,0.1274,0.1323,0.1356,0.1412,0.1467,0.151,0.159,0.161,0.1738,0.1857,0.1888,0.1907,0.1951,0.1968,0.1968,0.195,0.2051,0.1998,0.2006,0.1964,0.1931,0.1916,0.192,0.1919,0.1921,0.1923,0.1924,0,0.1235,0.1241,0.1294,0.1329,0.1389,0.1401,0.1456,0.1501,0.1557,0.1721,0.1727,0.1829,0.1935,0.189,0.1891,0.1862,0.1826,0.1751,0.1771,0.1787,0.1715,0.1648,0.1532,0,0,0,0,0,0.1184,0.1176,0.1204,0.1228,0.1281,0.1318,0.1406,0.1463,0.1591,0.1565,0.164,0.1672,0.1678,0.173,0.1663,0.1807,0.1832,0.1719,0.1755,0.184,0.1857,0.1786,0,0,0,0,0,0,0.1147,0.117,0.1167,0.1135,0.1137,0.118,0.1232,0.1319,0.1311,0.1449,0.1462,0.1562,0.1595,0.1699,0.1631,0.1643,0.1626,0.1784,0.1779,0.1831,0.1846,0.1859,0.1792,0,0,0,0,0]},{"header":{"parameterUnit":"m.s-1","parameterCategory":2,"la1":30.2991,"la2":30.254,"lo1":-89.0895,"lo2":-89.0444,"dy":0.0017,"dx":0.0017,"nx":28,"ny":28,"refTime":"2026-02-25T03:00:00:Z","depth":"4","parameterNumber":3,"parameterNumberName":"V-component_of_CURRENTS"},"data":[0,0,0,0,0,0,0,0,0,0,0,0,0,0,0,0,0,0,0,0,0,0,0,0,0,0,0,0,0,0,0,0,0,0,0,0,0,0,0,0,0,0,0,0,0,0,0,0,0,0,0,0,0,0,0,0,0,0,0.016,0.016,0,0.0153,0.0153,0.0153,0.015,0.015,0.015,0.015,0.0126,0.0126,0.0125,0,0,0,0,0,0,0,0,0,0,0,0,0,0.0147,0.0147,0.016,0.016,0.016,0.0153,0.0153,0.0153,0.015,0.015,0.015,0.015,0.0127,0.0126,0.0125,0,0,0,0,0,0,0,0,0,0,0,0,0,0.0148,0.0147,0.016,0.0157,0.0157,0.0153,0.0153,0.0153,0.015,0.015,0.015,0.015,0.0127,0.0126,0.0125,0.012,0,0,0.0122,0.0122,0,0,0,0,0,0,0,0,0.0148,0.0148,0.0158,0.0157,0.0157,0.0152,0.014,0.0141,0.015,0.0153,0.015,0.015,0.0133,0.0132,0.0131,0.0118,0.0117,0.0122,0.0122,0.0121,0.0121,0,0,0,0,0,0,0,0.0148,0.0148,0.0157,0.0158,0.0157,0.0148,0.0149,0.014,0.0143,0.0153,0.0152,0.0151,0.0133,0.0132,0.0131,0.0117,0.0122,0.0121,0.0121,0.012,0.0107,0.0107,0,0,0,0,0,0,0.0149,0.0148,0.0158,0.0157,0.0152,0.0149,0.0149,0.0154,0.0144,0.0142,0.0151,0.0151,0.0134,0.0132,0.013,0.0141,0.0121,0.012,0.012,0.0106,0.0107,0.0107,0,0,0,0,0,0,0.0149,0.015,0.0158,0.0152,0.0152,0.0149,0.0155,0.0154,0.0159,0.0143,0.0141,0.0158,0.0134,0.0131,0.0128,0.0139,0.012,0.0119,0.0106,0.0106,0.0107,0.0151,0,0,0,0,0,0,0.0149,0.0151,0.0157,0.0152,0.0153,0.0164,0.0155,0.0154,0.0158,0.0158,0.0147,0.0145,0.0133,0.0129,0.0127,0.0138,0.0118,0.0106,0.0106,0.0107,0.015,0.0153,0.0156,0,0,0,0,0,0.0149,0.0157,0.0157,0.0158,0.0161,0.0164,0.0164,0.0161,0.0158,0.0165,0.0156,0.0145,0.013,0.0129,0.0126,0.0137,0.0106,0.0106,0.0107,0.0148,0.0152,0.0156,0,0,0,0,0,0,0.0153,0.0158,0.0157,0.0167,0.0169,0.0164,0.0169,0.0166,0.0164,0.0165,0.0149,0.0146,0.0146,0.0133,0.0133,0.0132,0.0116,0.0116,0.0148,0.0152,0.0155,0.0167,0.0118,0,0,0,0,0,0.0157,0.0167,0.0167,0.0175,0.0178,0.0175,0.0176,0.0176,0.0172,0.0172,0.0163,0.0153,0.0145,0.0143,0.0132,0.0134,0.0114,0.0137,0.0141,0.0144,0.015,0.0126,0.0128,0.0108,0.0108,0.0108,0,0,0.016,0.0164,0.0169,0.0177,0.0179,0.019,0.0176,0.0185,0.0196,0.0169,0.0181,0.0164,0.0147,0.0148,0.0147,0.0141,0.0138,0.0144,0.0147,0.0152,0.0126,0.0128,0.013,0.0109,0.0108,0.0108,0,0,0.0173,0.0177,0.0192,0.0197,0.0205,0.0204,0.0209,0.0209,0.0214,0.022,0.0202,0.0192,0.0184,0.0173,0.0166,0.018,0.0155,0.0176,0.0205,0.0182,0.0183,0.0184,0.0161,0.016,0.018,0.018,0.018,0,0.0177,0.0197,0.0195,0.0212,0.0222,0.0213,0.0234,0.0235,0.0235,0.024,0.0231,0.0213,0.0197,0.0196,0.0201,0.0188,0.017,0.0194,0.0187,0.0187,0.0187,0.0163,0.0161,0.0182,0.0182,0.0182,0.0181,0,0.0202,0.022,0.0229,0.025,0.026,0.0275,0.028,0.029,0.0291,0.0287,0.0288,0.0262,0.0253,0.0243,0.0228,0.0224,0.0208,0.0192,0.0179,0.0192,0.0166,0.0163,0.0185,0.0184,0.0184,0.0183,0,0,0.0207,0.0241,0.0246,0.027,0.0285,0.0299,0.0321,0.0338,0.0356,0.0342,0.0359,0.0334,0.0315,0.0306,0.028,0.0258,0.0241,0.0232,0.0229,0.0213,0.0189,0.0171,0.0166,0.0224,0.0224,0.0223,0.017,0,0.0229,0.0272,0.0283,0.0327,0.0351,0.0359,0.0382,0.0394,0.0398,0.0408,0.0378,0.0379,0.0341,0.034,0.0311,0.0261,0.0236,0.0258,0.0175,0.0172,0.0159,0.0163,0.0223,0.0167,0.0167,0.0166,0.0166,0,0.0253,0.0281,0.033,0.038,0.0392,0.0418,0.0461,0.0481,0.0485,0.0488,0.0475,0.0447,0.0418,0.0383,0.0304,0.032,0.0262,0.0216,0.0212,0.0179,0.0149,0.015,0.016,0.0161,0.0161,0.0161,0.0162,0,0.0266,0.0317,0.0361,0.0377,0.0425,0.0459,0.0488,0.0508,0.0538,0.054,0.0554,0.0505,0.0494,0.0413,0.0318,0.0313,0.0222,0.0202,0.0129,0.0127,0.014,0.0139,0.0144,0.0144,0.0144,0.0144,0.0144,0,0.0286,0.0323,0.0377,0.0403,0.0467,0.0492,0.0556,0.0574,0.0605,0.0642,0.06,0.0607,0.0501,0.0435,0.0337,0.0227,0.0236,0.0137,0.0113,0.0159,0.0161,0.0137,0.0137,0.0142,0.0143,0.0143,0.0143,0,0.0293,0.0324,0.0383,0.0449,0.0477,0.0526,0.0612,0.0653,0.0676,0.0725,0.0731,0.0687,0.0603,0.0484,0.0352,0.0263,0.015,0.0106,0.0169,0.0149,0.0066,0.0068,0.0024,0.0023,0.0022,0.0022,0.0021,0,0.03,0.0329,0.0416,0.0461,0.0499,0.0577,0.0634,0.0686,0.0734,0.0772,0.0794,0.0734,0.0686,0.0491,0.0355,0.0166,0.0132,0.0071,0.0063,0.0073,0.0054,0.0058,0.0062,0.002,0.0019,0.0019,0.0019,0,0.0311,0.0343,0.0392,0.0485,0.0559,0.0641,0.0727,0.0767,0.0828,0.0848,0.0847,0.0754,0.0656,0.0495,0.0348,0.0209,0.0109,0.0061,0.0062,0.0053,0.0066,0.0049,0.0054,0.0016,0.0016,0.0017,0.0017,0,0.032,0.0354,0.0422,0.0507,0.0596,0.0685,0.0732,0.0796,0.0845,0.0886,0.088,0.078,0.0724,0.0517,0.0381,0.0243,0.0202,0.0147,0.0143,0.0144,0.0187,0.0222,0.0203,0,0,0,0,0,0.0324,0.0367,0.0441,0.0537,0.0626,0.0686,0.0785,0.0826,0.0884,0.089,0.0891,0.08,0.061,0.0527,0.0387,0.0346,0.0166,0.0174,0.0097,-0.0001,0.0002,0.003,0,0,0,0,0,0,0.0328,0.0391,0.0434,0.0547,0.0617,0.0723,0.079,0.0834,0.0839,0.0871,0.0773,0.0747,0.0559,0.0688,0.0378,0.0338,0.0265,0.0093,0.0089,-0.0003,0.0,0.0003,0.0032,0,0,0,0,0]}]]